[[{"header":{"parameterUnit":"m.s-1","parameterCategory":2,"la1":30.2992,"la2":30.254,"lo1":-89.0895,"lo2":-89.0443,"dy":0.0025,"dx":0.0025,"nx":19,"ny":19,"refTime":"2026-03-20T09:00:00:Z","depth":"0","parameterNumber":2,"parameterNumberName":"U-component_of_CURRENTS"},"data":[0,0,0,0.4567,0.457,0.4656,0.4656,0.4843,0.4845,0,0,0,0,0,0,0,0,0,0,0,0.4507,0.4508,0.4567,0.457,0.4656,0.4656,0.4842,0.4845,0,0,0,0,0,0,0,0,0,0,0,0.4507,0.4508,0.4508,0.457,0.4656,0.4656,0.4842,0.4753,0,0,0,0,0,0,0,0,0,0,0.4659,0.4594,0.4508,0.4508,0.4571,0.4655,0.4656,0.4748,0.4759,0.4832,0,0.4834,0,0.487,0.4861,0.4861,0,0,0,0.4552,0.4585,0.4623,0.4508,0.4572,0.4655,0.4612,0.4753,0.4766,0.4847,0.4837,0.4845,0.4873,0.4862,0.4863,0.5043,0.5043,0,0,0.4547,0.4516,0.4613,0.463,0.4585,0.4609,0.4615,0.476,0.4763,0.4838,0.485,0.4876,0.4864,0.4866,0.5043,0.5043,0,0,0,0.4546,0.4513,0.4544,0.4621,0.4646,0.4612,0.4618,0.4755,0.4769,0.4852,0.4878,0.4865,0.4868,0.5043,0.5043,0.4975,0,0,0,0.4542,0.4515,0.4542,0.4524,0.4642,0.4693,0.461,0.4757,0.4776,0.4877,0.4865,0.487,0.5042,0.5043,0.4977,0.4934,0,0,0,0.4505,0.4511,0.452,0.4522,0.4573,0.469,0.4711,0.4761,0.4795,0.4862,0.4871,0.5042,0.5043,0.4978,0.4937,0.4964,0,0,0,0.4473,0.4476,0.4518,0.4532,0.4572,0.4636,0.471,0.4768,0.4818,0.4866,0.5042,0.5043,0.4978,0.4939,0.4965,0.4874,0.4862,0,0,0.446,0.4473,0.4483,0.4525,0.4559,0.4624,0.4677,0.4775,0.4854,0.4997,0.5001,0.4976,0.4937,0.4964,0.4899,0.4886,0,0,0,0.447,0.447,0.4489,0.4519,0.4581,0.462,0.4727,0.4797,0.4907,0.4892,0.5004,0.4982,0.5001,0.495,0.494,0.4831,0.5045,0.5045,0.5045,0.4384,0.443,0.4434,0.4491,0.4536,0.4638,0.469,0.4808,0.4898,0.4942,0.4948,0.4948,0.4892,0.4883,0.4773,0.4981,0.498,0.498,0.498,0.4331,0.4322,0.4382,0.4401,0.4464,0.4516,0.468,0.475,0.489,0.4937,0.496,0.4906,0.4868,0.4754,0.4976,0.4977,0.4977,0.4978,0.4978,0.4248,0.4249,0.4268,0.4294,0.4327,0.4433,0.4501,0.4647,0.4811,0.4838,0.4839,0.4839,0.4724,0.487,0.487,0.487,0.487,0.487,0.487,0.4138,0.4165,0.4143,0.4185,0.419,0.4244,0.441,0.4514,0.4669,0.4759,0.476,0.4701,0.4916,0.4902,0.4868,0.4869,0.4869,0.4869,0.4869,0.402,0.4038,0.4015,0.4008,0.402,0.3987,0.4187,0.434,0.4491,0.4545,0.4544,0.474,0.4762,0.477,0.4755,0.4685,0.4685,0.4685,0.4685,0.392,0.3935,0.3872,0.3833,0.3816,0.3857,0.3842,0.4044,0.4276,0.4338,0.4408,0.4376,0.4389,0.4389,0.4405,0.4383,0.4221,0.422,0.422,0.3818,0.3839,0.3741,0.3728,0.3691,0.3682,0.3602,0.3676,0.4011,0.4194,0.4272,0.4292,0.4243,0.4272,0.4274,0.4305,0.4273,0,0]},{"header":{"parameterUnit":"m.s-1","parameterCategory":2,"la1":30.2992,"la2":30.254,"lo1":-89.0895,"lo2":-89.0443,"dy":0.0025,"dx":0.0025,"nx":19,"ny":19,"refTime":"2026-03-20T09:00:00:Z","depth":"0","parameterNumber":3,"parameterNumberName":"V-component_of_CURRENTS"},"data":[0,0,0,0.1596,0.1596,0.1532,0.1531,0.1477,0.1477,0,0,0,0,0,0,0,0,0,0,0,0.1611,0.1611,0.1596,0.1596,0.1532,0.1531,0.1477,0.1477,0,0,0,0,0,0,0,0,0,0,0,0.1611,0.1611,0.1612,0.1596,0.1532,0.1531,0.1477,0.151,0,0,0,0,0,0,0,0,0,0,0.1565,0.1595,0.1611,0.1612,0.1596,0.1532,0.1531,0.151,0.1508,0.1525,0,0.1534,0,0.1525,0.1477,0.1477,0,0,0,0.156,0.1597,0.1582,0.1612,0.1596,0.1532,0.1551,0.1508,0.1505,0.1521,0.1533,0.1531,0.1524,0.1477,0.1477,0.1654,0.1656,0,0,0.1564,0.1592,0.1584,0.1581,0.1606,0.1553,0.1549,0.1506,0.1514,0.1533,0.153,0.1523,0.1477,0.1477,0.1652,0.1654,0,0,0,0.1598,0.1595,0.1579,0.1583,0.1581,0.1552,0.1547,0.1515,0.1511,0.1529,0.1523,0.1477,0.1477,0.165,0.1653,0.1768,0,0,0,0.1598,0.1618,0.1581,0.1596,0.1583,0.1547,0.1558,0.1513,0.1508,0.1523,0.1477,0.1477,0.1648,0.1652,0.176,0.1785,0,0,0,0.1609,0.1619,0.1619,0.1598,0.1587,0.1547,0.1538,0.1511,0.1507,0.1477,0.1477,0.1647,0.1651,0.1753,0.1775,0.1833,0,0,0,0.1627,0.1653,0.162,0.1664,0.1589,0.1634,0.1538,0.1567,0.1559,0.1477,0.1648,0.1653,0.1751,0.1769,0.1827,0.1808,0.1834,0,0,0.1669,0.1659,0.1688,0.1658,0.1706,0.1638,0.1721,0.1667,0.1633,0.1652,0.1656,0.1763,0.1774,0.1832,0.207,0.2088,0,0,0,0.1708,0.1713,0.1733,0.175,0.1775,0.1801,0.1763,0.1776,0.1806,0.1655,0.1823,0.1828,0.1859,0.1838,0.1854,0.1553,0.1674,0.1673,0.1673,0.1725,0.1748,0.1796,0.1825,0.1877,0.1924,0.1966,0.1983,0.1931,0.1999,0.1967,0.215,0.2135,0.2145,0.1838,0.2034,0.2034,0.2035,0.2035,0.1742,0.1762,0.1822,0.187,0.1944,0.2018,0.2134,0.214,0.222,0.2152,0.2178,0.2018,0.2169,0.1835,0.2043,0.2042,0.2041,0.204,0.2039,0.1704,0.1727,0.1759,0.185,0.1968,0.2076,0.223,0.2293,0.231,0.2362,0.23,0.2297,0.1956,0.2366,0.2366,0.2367,0.2367,0.2367,0.2368,0.1651,0.1694,0.1737,0.1843,0.1935,0.2095,0.2286,0.2373,0.2436,0.2422,0.2422,0.2002,0.225,0.2183,0.2374,0.2373,0.2372,0.2372,0.2371,0.1609,0.1631,0.1702,0.1778,0.2004,0.2181,0.2349,0.2509,0.2563,0.2583,0.2127,0.2454,0.2401,0.2387,0.2325,0.2541,0.2541,0.2541,0.2541,0.1575,0.1592,0.1702,0.1837,0.2034,0.2238,0.2471,0.2613,0.2394,0.2178,0.2027,0.1909,0.1915,0.1823,0.1822,0.1744,0.1809,0.1807,0.1806,0.1554,0.1601,0.1671,0.182,0.2058,0.2299,0.2527,0.2688,0.2203,0.1742,0.1613,0.1645,0.1433,0.1467,0.1291,0.1314,0.1175,0,0]}],[{"header":{"parameterUnit":"m.s-1","parameterCategory":2,"la1":30.2992,"la2":30.254,"lo1":-89.0895,"lo2":-89.0443,"dy":0.0025,"dx":0.0025,"nx":19,"ny":19,"refTime":"2026-03-20T09:00:00:Z","depth":"2","parameterNumber":2,"parameterNumberName":"U-component_of_CURRENTS"},"data":[0,0,0,0.2634,0.2639,0.2978,0.2981,0.3326,0.3328,0,0,0,0,0,0,0,0,0,0,0,0.2563,0.2565,0.2634,0.2639,0.2978,0.2981,0.3326,0.3328,0,0,0,0,0,0,0,0,0,0,0,0.2563,0.2564,0.2566,0.264,0.2978,0.2981,0.3325,0.3112,0,0,0,0,0,0,0,0,0,0,0.2802,0.2707,0.2564,0.2567,0.2641,0.2977,0.2981,0.3103,0.3125,0.312,0,0.3158,0,0.3189,0.3341,0.3342,0,0,0,0.2725,0.2689,0.2766,0.2567,0.2643,0.2976,0.285,0.3117,0.3141,0.3147,0.3163,0.3176,0.3195,0.3342,0.3343,0.3329,0.3327,0,0,0.2706,0.2645,0.275,0.2781,0.271,0.2838,0.2859,0.3133,0.3153,0.3164,0.3184,0.3201,0.3343,0.3345,0.333,0.3328,0,0,0,0.2594,0.2631,0.2708,0.2767,0.2802,0.2845,0.287,0.3144,0.3165,0.3187,0.3205,0.3345,0.3347,0.3332,0.3329,0.3271,0,0,0,0.2587,0.2559,0.2698,0.2668,0.2796,0.2981,0.2873,0.315,0.3179,0.3203,0.3345,0.3349,0.3334,0.3331,0.3276,0.3311,0,0,0,0.2552,0.2555,0.2586,0.2663,0.2765,0.2978,0.3022,0.3159,0.3184,0.3342,0.3349,0.3335,0.3331,0.3281,0.3317,0.3353,0,0,0,0.2491,0.2495,0.2585,0.2569,0.2761,0.2814,0.3021,0.3147,0.3269,0.3346,0.3334,0.333,0.3283,0.332,0.3356,0.325,0.3232,0,0,0.2447,0.2489,0.2466,0.2551,0.2553,0.2775,0.2805,0.3093,0.3198,0.3257,0.3259,0.3274,0.3317,0.3354,0.3025,0.3015,0,0,0,0.2415,0.2418,0.2421,0.2455,0.2521,0.2677,0.2885,0.2983,0.3155,0.3235,0.3211,0.324,0.3267,0.3203,0.3193,0.3311,0.3312,0.3312,0.3313,0.2318,0.2338,0.2315,0.2372,0.2425,0.2617,0.275,0.2917,0.3003,0.3054,0.3143,0.3068,0.299,0.2984,0.3053,0.3053,0.3053,0.3053,0.3052,0.2215,0.2177,0.2263,0.2268,0.2406,0.2479,0.2692,0.2823,0.2967,0.302,0.3047,0.3081,0.297,0.3046,0.3048,0.3048,0.3049,0.3049,0.305,0.2098,0.209,0.2144,0.2194,0.2316,0.248,0.2629,0.2804,0.2958,0.2996,0.2992,0.2992,0.313,0.3027,0.3027,0.3027,0.3027,0.3028,0.3028,0.1952,0.2005,0.2023,0.2118,0.2188,0.2356,0.2624,0.2748,0.2903,0.2955,0.2954,0.3062,0.3063,0.3128,0.3031,0.3031,0.303,0.303,0.303,0.1746,0.1842,0.1843,0.1906,0.206,0.2163,0.2431,0.2663,0.2799,0.2851,0.2926,0.2927,0.2968,0.2973,0.3034,0.2921,0.2921,0.2921,0.2921,0.162,0.1658,0.1701,0.1767,0.1878,0.2072,0.2168,0.2292,0.2532,0.2541,0.2557,0.2469,0.2483,0.2495,0.2511,0.2562,0.2325,0.2323,0.2322,0.1486,0.1544,0.1534,0.1661,0.1798,0.1956,0.1984,0.1965,0.2094,0.2293,0.2391,0.2893,0.2806,0.2811,0.2866,0.2877,0.2975,0,0]},{"header":{"parameterUnit":"m.s-1","parameterCategory":2,"la1":30.2992,"la2":30.254,"lo1":-89.0895,"lo2":-89.0443,"dy":0.0025,"dx":0.0025,"nx":19,"ny":19,"refTime":"2026-03-20T09:00:00:Z","depth":"2","parameterNumber":3,"parameterNumberName":"V-component_of_CURRENTS"},"data":[0,0,0,-0.0667,-0.0668,-0.0596,-0.0595,-0.0473,-0.0473,0,0,0,0,0,0,0,0,0,0,0,-0.0642,-0.0641,-0.0667,-0.0668,-0.0597,-0.0595,-0.0473,-0.0473,0,0,0,0,0,0,0,0,0,0,0,-0.0642,-0.0641,-0.0641,-0.0668,-0.0597,-0.0595,-0.0473,-0.0521,0,0,0,0,0,0,0,0,0,0,-0.0588,-0.0601,-0.0641,-0.0641,-0.0668,-0.0597,-0.0595,-0.0523,-0.0518,-0.0514,0,-0.0504,0,-0.0534,-0.0469,-0.0469,0,0,0,-0.061,-0.0605,-0.0595,-0.0641,-0.0668,-0.0597,-0.0612,-0.052,-0.0515,-0.0508,-0.0503,-0.05,-0.0531,-0.0469,-0.0468,-0.0512,-0.0513,0,0,-0.0614,-0.0618,-0.0599,-0.0591,-0.0651,-0.0615,-0.0611,-0.0516,-0.0506,-0.0502,-0.0498,-0.0529,-0.0468,-0.0468,-0.0511,-0.0512,0,0,0,-0.0664,-0.0621,-0.0611,-0.0595,-0.0611,-0.0615,-0.0609,-0.0508,-0.0508,-0.0497,-0.0528,-0.0468,-0.0467,-0.051,-0.0512,-0.0373,0,0,0,-0.0664,-0.0655,-0.0613,-0.0614,-0.0614,-0.0571,-0.0603,-0.0511,-0.0505,-0.0529,-0.0468,-0.0467,-0.0509,-0.0511,-0.0374,-0.0238,0,0,0,-0.0645,-0.0655,-0.0647,-0.0614,-0.0617,-0.0573,-0.0564,-0.0509,-0.0527,-0.0469,-0.0467,-0.0509,-0.0511,-0.0376,-0.0245,-0.012,0,0,0,-0.0648,-0.0614,-0.0646,-0.0621,-0.0618,-0.0615,-0.0564,-0.0521,-0.047,-0.0468,-0.0509,-0.0511,-0.0376,-0.0249,-0.0125,-0.0116,-0.009,0,0,-0.0604,-0.0608,-0.0594,-0.0624,-0.0588,-0.0621,-0.058,-0.0476,-0.051,-0.0526,-0.0526,-0.0374,-0.0245,-0.0121,-0.0238,-0.0208,0,0,0,-0.0581,-0.0558,-0.0558,-0.0546,-0.0571,-0.0504,-0.0508,-0.0502,-0.0454,-0.0506,-0.0456,-0.038,-0.0304,-0.0315,-0.0293,-0.0521,-0.0521,-0.0521,-0.0521,-0.0466,-0.0486,-0.0441,-0.0446,-0.0439,-0.0438,-0.0388,-0.0395,-0.0457,-0.0434,-0.0331,-0.0221,-0.0241,-0.0221,-0.0447,-0.0447,-0.0446,-0.0446,-0.0445,-0.0366,-0.033,-0.033,-0.0283,-0.025,-0.0212,-0.0212,-0.0222,-0.0181,-0.0281,-0.0217,-0.0249,-0.0188,-0.0436,-0.0438,-0.0439,-0.044,-0.0441,-0.0441,-0.0287,-0.0266,-0.0235,-0.0144,-0.0017,0.0003,0.0156,0.0097,0.0015,0.0056,0.0053,0.005,-0.0028,0.0093,0.0095,0.0096,0.0097,0.0097,0.0098,-0.0202,-0.0178,-0.007,0.0021,0.014,0.0319,0.0397,0.0433,0.038,0.025,0.0248,-0.0037,-0.0055,0.0001,0.0115,0.0112,0.011,0.0108,0.0107,-0.0095,-0.0071,0.0082,0.02,0.0471,0.0727,0.0747,0.0819,0.0783,0.0772,0.0338,0.0327,0.0312,0.0288,0.0348,0.0548,0.0548,0.0548,0.0548,0.0002,0.0011,0.0269,0.0486,0.0746,0.0938,0.1171,0.1034,0.0802,0.055,0.055,0.038,0.0362,0.0339,0.0314,0.0369,0.0575,0.0575,0.0575,0.0109,0.0168,0.039,0.059,0.0893,0.1188,0.1371,0.1184,0.074,0.0573,0.0519,0.0557,0.0295,0.0273,0.0216,0.0185,0.0266,0,0]}],[{"header":{"parameterUnit":"m.s-1","parameterCategory":2,"la1":30.2992,"la2":30.254,"lo1":-89.0895,"lo2":-89.0443,"dy":0.0025,"dx":0.0025,"nx":19,"ny":19,"refTime":"2026-03-20T09:00:00:Z","depth":"4","parameterNumber":2,"parameterNumberName":"U-component_of_CURRENTS"},"data":[0,0,0,0.0863,0.0866,0.098,0.0981,0.102,0.102,0,0,0,0,0,0,0,0,0,0,0,0.0814,0.0814,0.0863,0.0866,0.098,0.0981,0.102,0.102,0,0,0,0,0,0,0,0,0,0,0,0.0813,0.0814,0.0815,0.0866,0.098,0.0981,0.102,0.0958,0,0,0,0,0,0,0,0,0,0,0.086,0.0842,0.0814,0.0815,0.0867,0.098,0.0981,0.0956,0.0962,0.0939,0,0.0961,0,0.0997,0.1021,0.1021,0,0,0,0.0859,0.0838,0.0862,0.0815,0.0868,0.098,0.0927,0.096,0.0967,0.0946,0.0962,0.0965,0.0998,0.1021,0.1021,0.1098,0.1099,0,0,0.0852,0.0839,0.0858,0.0866,0.0901,0.0923,0.093,0.0965,0.0974,0.0962,0.0966,0.0998,0.1021,0.1021,0.1098,0.1098,0,0,0,0.0839,0.0834,0.086,0.0863,0.0896,0.0926,0.0935,0.0973,0.098,0.0967,0.0999,0.1021,0.1021,0.1097,0.1098,0.1156,0,0,0,0.0835,0.0827,0.0857,0.0851,0.0896,0.0954,0.0941,0.0977,0.0983,0.0998,0.1021,0.1021,0.1096,0.1097,0.1153,0.1178,0,0,0,0.0808,0.0825,0.0838,0.0849,0.0903,0.0955,0.0965,0.098,0.1002,0.1021,0.1021,0.1095,0.1097,0.115,0.1173,0.121,0,0,0,0.079,0.0799,0.0837,0.0869,0.0902,0.0966,0.0965,0.1022,0.1044,0.1021,0.1096,0.1098,0.1149,0.117,0.1207,0.1052,0,0,0,0.0783,0.0798,0.0818,0.0855,0.0914,0.0949,0.1024,0.1058,0.1062,0.1073,0.1076,0.1154,0.1172,0.1209,0.1159,0,0,0,0,0.0805,0.0821,0.0845,0.0898,0.0949,0.1024,0.1068,0.11,0.1159,0.1086,0.1174,0.1184,0.1205,0.1107,0.1107,0.1106,0.1106,0.1106,0.1106,0.0767,0.0816,0.0856,0.0926,0.098,0.1082,0.1135,0.1189,0.1189,0.1244,0.1247,0.1336,0.1237,0.1264,0.1264,0.1265,0.1265,0.1265,0.1265,0.0756,0.0779,0.0868,0.0926,0.1022,0.1098,0.1217,0.1258,0.1344,0.1333,0.135,0.1195,0.1272,0.127,0.1269,0.1269,0.1268,0.1268,0.1267,0.0712,0.073,0.0792,0.0892,0.1013,0.1138,0.1239,0.1334,0.1397,0.1429,0.1334,0.138,0.1358,0.1456,0.1456,0.1456,0.1456,0.1457,0.1457,0.0634,0.0695,0.0742,0.0867,0.0945,0.1085,0.1279,0.1334,0.1428,0.1391,0.1466,0.14,0.1394,0.1369,0.1461,0.1461,0.146,0.146,0.1459,0.0575,0.0607,0.0662,0.073,0.0903,0.0991,0.1194,0.131,0.1366,0.1364,0.1357,0.136,0.1323,0.1319,0.1289,0.1362,0.136,0.1358,0,0.0522,0.0543,0.061,0.0683,0.0782,0.0936,0.1021,0.1136,0.1224,0.1188,0.1322,0.1308,0.1312,0.126,0.1254,0.1215,0,0,0,0.0491,0.0512,0.0539,0.0621,0.0727,0.0875,0.1042,0.1062,0.1217,0.1244,0.1317,0.1328,0.1378,0.1475,0.1427,0.1419,0.1377,0,0]},{"header":{"parameterUnit":"m.s-1","parameterCategory":2,"la1":30.2992,"la2":30.254,"lo1":-89.0895,"lo2":-89.0443,"dy":0.0025,"dx":0.0025,"nx":19,"ny":19,"refTime":"2026-03-20T09:00:00:Z","depth":"4","parameterNumber":3,"parameterNumberName":"V-component_of_CURRENTS"},"data":[0,0,0,-0.0126,-0.0127,-0.0199,-0.0199,-0.0298,-0.0299,0,0,0,0,0,0,0,0,0,0,0,-0.009,-0.009,-0.0126,-0.0127,-0.0199,-0.0199,-0.0298,-0.0299,0,0,0,0,0,0,0,0,0,0,0,-0.009,-0.009,-0.009,-0.0127,-0.0199,-0.0199,-0.0298,-0.0244,0,0,0,0,0,0,0,0,0,0,-0.0174,-0.0155,-0.009,-0.009,-0.0128,-0.0199,-0.0199,-0.0241,-0.0247,-0.0265,0,-0.0263,0,-0.0285,-0.0305,-0.0305,0,0,0,-0.0135,-0.015,-0.0151,-0.009,-0.0128,-0.0199,-0.0169,-0.0244,-0.0251,-0.0273,-0.0265,-0.0269,-0.0287,-0.0306,-0.0306,-0.0316,-0.0315,0,0,-0.0131,-0.0125,-0.0146,-0.0155,-0.0131,-0.0166,-0.0171,-0.0248,-0.0259,-0.0265,-0.0271,-0.0289,-0.0306,-0.0307,-0.0316,-0.0316,0,0,0,-0.0114,-0.0122,-0.0123,-0.0151,-0.0164,-0.0168,-0.0173,-0.0256,-0.025,-0.0273,-0.029,-0.0307,-0.0308,-0.0317,-0.0316,-0.0233,0,0,0,-0.0112,-0.0112,-0.012,-0.0121,-0.0162,-0.0216,-0.0179,-0.0245,-0.0255,-0.0289,-0.0307,-0.0309,-0.0318,-0.0317,-0.0237,-0.0205,0,0,0,-0.0089,-0.0111,-0.0109,-0.012,-0.0147,-0.0214,-0.0215,-0.0247,-0.0265,-0.0305,-0.0309,-0.0318,-0.0317,-0.024,-0.021,-0.0231,0,0,0,-0.0095,-0.0061,-0.0109,-0.0078,-0.0146,-0.0128,-0.0215,-0.0229,-0.0254,-0.0307,-0.0318,-0.0316,-0.0241,-0.0214,-0.0233,-0.0204,0,0,0,-0.0044,-0.0055,-0.0032,-0.0075,-0.0035,-0.0119,-0.0099,-0.018,-0.0242,-0.0296,-0.0296,-0.0235,-0.0211,-0.0232,-0.0124,0,0,0,0,-0.0009,0.0007,0.0014,0.0015,0.0006,-0.0023,-0.0097,-0.0137,-0.0196,-0.0251,-0.0231,-0.0218,-0.0235,-0.0223,-0.031,-0.031,-0.031,-0.031,-0.031,0.0051,0.0056,0.0098,0.01,0.0099,0.0041,0.0012,-0.0061,-0.0122,-0.0135,-0.0147,-0.0099,-0.008,-0.0142,-0.0141,-0.0141,-0.0141,-0.014,-0.014,0.0133,0.016,0.0153,0.0196,0.0167,0.0167,0.0095,0.004,-0.0026,-0.0069,-0.009,-0.0129,-0.0132,-0.0134,-0.0135,-0.0136,-0.0136,-0.0137,-0.0137,0.0175,0.0191,0.0209,0.0249,0.0263,0.0229,0.0216,0.0144,0.0046,0.0036,-0.0012,-0.0065,-0.008,0.0006,0.0006,0.0006,0.0006,0.0006,0.0006,0.0203,0.0227,0.0264,0.0303,0.0326,0.0334,0.0277,0.0225,0.0126,0.0079,0.0041,-0.0052,-0.0056,-0.0073,0.0008,0.0007,0.0007,0.0007,0.0007,0.025,0.0246,0.031,0.0341,0.0394,0.0402,0.0368,0.0265,0.0201,0.0131,0.0079,0.0075,0.0032,0.0024,0.0008,0.0116,0.0117,0.0117,0,0.0261,0.027,0.0331,0.0382,0.0427,0.0432,0.0392,0.0324,0.0197,0.0201,0.0165,0.011,0.0105,0.0058,0.0052,0.0037,0,0,0,0.027,0.0291,0.0328,0.038,0.0432,0.0401,0.0377,0.0337,0.0243,0.0184,0.0134,0.013,0.008,0.0012,-0.0067,-0.0073,-0.0105,0,0]}]]